Location: ?????
(31.8092°N, 35.2590°E)
Time: 19:04:31
(UTC+00:00)

Cosmos 2360 Rocket - Pass Details

Date: 20 June 2021
Orbit: 835 x 843 km, 71.0° (Epoch: 01 August)

Event Time Altitude Azimuth Distance (km) Brightness Sun altitude
Rises 17:10:01 0° 173° (S) 3,379 5.0 -5.0°
Reaches altitude 10° 17:12:41 10° 164° (SSE) 2,447 4.2 -5.5°
Maximum altitude 17:17:34 31° 103° (ESE) 1,422 2.9 -6.3°
Drops below altitude 10° 17:22:28 10° 42° (NE) 2,454 4.5 -7.2°
Sets 17:25:08 0° 33° (NNE) 3,390 5.4 -7.7°
